TimeAKST,TemperatureF,Dew PointF,Humidity,Sea Level PressureIn,VisibilityMPH,Wind Direction,Wind SpeedMPH,Gust SpeedMPH,PrecipitationIn,Events,Conditions,WindDirDegrees,DateUTC
12:53 AM,44.1,30.9,60,29.92,10.0,ESE,5.8,-,N/A,,Overcast,110,2011-11-09 09:53:00
1:53 AM,43.0,35.1,74,29.91,10.0,WNW,5.8,-,N/A,,Mostly Cloudy,290,2011-11-09 10:53:00
3:53 AM,37.9,33.1,83,29.89,10.0,Calm,Calm,-,N/A,,Scattered Clouds,0,2011-11-09 12:53:00
4:53 AM,39.0,35.1,86,29.87,10.0,NNW,5.8,-,N/A,,Scattered Clouds,340,2011-11-09 13:53:00
5:53 AM,37.0,33.1,86,29.85,10.0,Calm,Calm,-,N/A,,Scattered Clouds,0,2011-11-09 14:53:00
6:53 AM,34.0,30.9,89,29.84,10.0,East,3.5,-,N/A,,Partly Cloudy,100,2011-11-09 15:53:00
7:53 AM,35.1,32.0,89,29.81,10.0,East,3.5,-,N/A,,Partly Cloudy,100,2011-11-09 16:53:00
8:53 AM,39.0,35.1,86,29.82,10.0,NNW,10.4,-,N/A,,Scattered Clouds,340,2011-11-09 17:53:00
9:53 AM,39.9,35.1,83,29.83,10.0,ESE,3.5,-,N/A,,Mostly Cloudy,110,2011-11-09 18:53:00
10:53 AM,41.0,36.0,82,29.81,10.0,Calm,Calm,-,N/A,,Mostly Cloudy,0,2011-11-09 19:53:00
11:53 AM,41.0,35.1,79,29.80,10.0,Calm,Calm,-,N/A,,Scattered Clouds,0,2011-11-09 20:53:00
12:53 PM,42.1,34.0,73,29.77,10.0,WNW,4.6,-,N/A,,Overcast,300,2011-11-09 21:53:00
1:53 PM,43.0,36.0,76,29.77,10.0,NW,9.2,-,N/A,,Clear,320,2011-11-09 22:53:00
2:53 PM,43.0,35.1,74,29.77,10.0,NNW,8.1,-,N/A,,Clear,330,2011-11-09 23:53:00
3:53 PM,41.0,34.0,76,29.77,10.0,North,4.6,-,N/A,,Clear,350,2011-11-10 00:53:00
4:53 PM,37.9,34.0,86,29.77,10.0,Calm,Calm,-,N/A,,Clear,0,2011-11-10 01:53:00
5:53 PM,36.0,33.1,89,29.77,10.0,Calm,Calm,-,N/A,,Clear,0,2011-11-10 02:53:00
6:53 PM,34.0,32.0,92,29.78,10.0,Calm,Calm,-,N/A,,Clear,0,2011-11-10 03:53:00
7:53 PM,34.0,30.9,89,29.77,10.0,East,4.6,-,N/A,,Clear,100,2011-11-10 04:53:00
8:53 PM,34.0,30.9,89,29.78,10.0,ESE,4.6,-,N/A,,Scattered Clouds,110,2011-11-10 05:53:00
9:00 PM,33.8,32.0,93,29.78,10.0,East,5.8,-,N/A,,Mostly Cloudy,100,2011-11-10 06:00:00
9:07 PM,33.8,32.0,93,29.78,10.0,East,5.8,-,N/A,,Scattered Clouds,100,2011-11-10 06:07:00
9:53 PM,35.1,32.0,89,29.78,10.0,ESE,5.8,-,N/A,,Scattered Clouds,120,2011-11-10 06:53:00
10:00 PM,35.6,32.0,87,29.78,10.0,ESE,5.8,-,N/A,,Overcast,120,2011-11-10 07:00:00
10:53 PM,35.1,32.0,89,29.78,10.0,East,6.9,-,N/A,,Overcast,100,2011-11-10 07:53:00
11:15 PM,35.6,33.8,93,29.79,10.0,East,6.9,-,N/A,,Overcast,100,2011-11-10 08:15:00
11:24 PM,37.4,33.8,87,29.79,10.0,ESE,6.9,-,N/A,,Overcast,110,2011-11-10 08:24:00
11:53 PM,37.4,33.8,87,29.79,10.0,ESE,8.1,-,N/A,,Overcast,120,2011-11-10 08:53:00